User: anonymous   Login
Location: Unspecified
(0.0000°N, 0.0000°E)
Time: 02:11:41
(UTC+00:00)
Language:

MUNIN - Orbit

View from above orbital plane
View from above orbital plane
View from above satellite
View from above satellite

Ground track
Ground track

The orbit data is extracted from the following two-line orbital elements,

1 26621U 00075C   18110.30582025 -.00000725  00000-0 -64883-3 0  9993
2 26621  95.4089  21.2357 0712888   6.5318 354.4515 13.04130053828534
Epoch (UTC): 20 April 2018 07:20:22
Eccentricity: 0.0712888
inclination: 95.4089°
perigee height: 702 km
apogee height: 1789 km
right ascension of ascending node: 21.2357°
argument of perigee: 6.5318°
revolutions per day: 13.04130053
mean anomaly at epoch: 354.4515°
orbit number at epoch: 82853

The dashed part of the orbit path shows where the satellite is in the earth's shadow,  

DLR